Location: The Saddle
(36.8333°N, 80.3417°W)
Time: 17:53:54
(UTC-04:00)

JUGNU - Visible Passes

Search period start: 16 September 2024 00:00
Search period end: 26 September 2024 00:00
Orbit: 834 x 861 km, 20.0° (Epoch: 16 September)

Date Brightness Start Highest point End Pass type
(mag) Time Alt. Az. Time Alt. Az. Time Alt. Az.
16 Sep ? 20:58:33 10° SSW 21:01:02 13° S 21:01:30 13° SSE visible
17 Sep ? 20:42:23 10° SSW 20:45:03 13° S 20:46:40 12° SSE visible
18 Sep ? 20:26:14 10° SSW 20:29:05 14° S 20:31:49 10° SE visible
19 Sep ? 20:10:08 10° SSW 20:13:07 14° S 20:16:06 10° SE visible
19 Sep ? 21:58:16 10° SW 21:58:44 11° SSW 21:58:44 11° SSW visible
20 Sep ? 19:54:05 10° SSW 19:57:08 14° S 20:00:13 10° SE visible
20 Sep ? 21:42:24 10° SW 21:43:50 13° SSW 21:43:50 13° SSW visible
21 Sep ? 19:38:02 10° SSW 19:41:10 15° S 19:44:18 10° SE visible
21 Sep ? 21:26:36 10° SW 21:28:56 13° SSW 21:28:56 13° SSW visible
22 Sep ? 21:10:49 10° SSW 21:13:20 13° S 21:14:02 13° S visible
23 Sep ? 20:55:05 10° SSW 20:57:22 12° S 20:59:09 11° S visible
24 Sep ? 20:39:26 10° SSW 20:41:22 12° S 20:43:18 10° S visible
25 Sep ? 20:23:55 10° SSW 20:25:23 11° SSW 20:26:52 10° S visible
